Regional Weather Roundup
Issued by NWS

Home | Current Version | Previous Version | Graphics & Text | Print | Product List | Glossary On
Versions: 1 2 3 4 5 6 7 8 9 10 11 12 13 14 15 16 17 18 19 20 21 22 23 24 25 26 27 28 29 30 31 32 33 34 35 36 37 38 39 40 41 42 43 44 45 46 47 48 49 50
000
ASUS43 KLOT 232008
RWRIL

ILLINOIS REGIONAL WEATHER ROUNDUP
NATIONAL WEATHER SERVICE CHICAGO/ROMEOVILLE IL
200 PM CST TUE JAN 23 2018

NOTE: "FAIR" INDICATES FEW OR NO CLOUDS BELOW 12,000 FEET WITH NO
SIGNIFICANT WEATHER AND/OR OBSTRUCTIONS TO VISIBILITY.

* THESE STATIONS ARE NOT UNDER NWS QUALITY CONTROL. THEY ALSO MAY NOT
  REPORT WEATHER SUCH AS PRECIPITATION OR FOG.

ILZ001-002-007-009-015-016-024-232100-
NORTHWEST ILLINOIS

CITY           SKY/WX    TMP DP  RH WIND       PRES   REMARKS
MOLINE         CLOUDY    30  23  75 NW18      30.01R WCI  18
STERLING*      CLOUDY    31  27  85 NW12      29.97R WCI  22
SAVANNA*       CLOUDY    29  25  83 NW14      29.99R WCI  19
$$

ILZ003-004-008-010-011-017-018-232100-
NORTH CENTRAL ILLINOIS

CITY           SKY/WX    TMP DP  RH WIND       PRES   REMARKS
ROCKFORD       CLOUDY    31  24  75 NW16      29.94R WCI  20
FREEPORT*      CLOUDY    29  26  86 NW15G22   29.96R WCI  18
ROCHELLE*      CLOUDY    31  26  81 NW14      29.94R WCI  21
DE KALB*       CLOUDY    30  24  78 NW20G30   29.91R WCI  18
PERU*          CLOUDY    31  25  79 NW17      29.96R WCI  20
$$

ILZ005-006-012>014-019>023-232100-
NORTHEAST ILLINOIS

CITY           SKY/WX    TMP DP  RH WIND       PRES   REMARKS
CHICAGO-OHARE  CLOUDY    30  22  72 NW14      29.89R WCI  19
CHICAGO-MIDWAY FLURRIES  31  24  75 NW13      29.90R WCI  21
AURORA         CLOUDY    31  25  78 NW13      29.92R WCI  21
LANSING*       CLOUDY    30  26  86 NW13      29.90R WCI  20
JOLIET*        CLOUDY    32  24  73 NW7       29.93R WCI  25
WAUKEGAN       CLOUDY    29  24  82 NW9G17    29.88R WCI  20
DUPAGE AIRPORT CLOUDY    30  24  78 NW14      29.90R WCI  19
KANKAKEE*      CLOUDY   N/A N/A N/A NW16      29.92R
WHEELING       CLOUDY    30  24  78 NW14      29.91R WCI  19
MORRIS*        CLOUDY    31  24  76 NW10      29.93R WCI  22
ROMEOVILLE*    CLOUDY    30  24  79 NW14      29.92R WCI  19
NORTHERLY ISL    N/A     30  22  72 NW15        N/A  WCI  19
$$

LMZ740>746-232100-
SOUTHERN LAKE MICHIGAN

STATION/POSITION SKY/WX   TEMP    WIND        PRES    VSBY  WAVE
                          AIR SEA DIR/SP/G                  HT/PER
                          (F)     (DEG/KT/KT) (MB)    (MI)  (FT/S)
HARRISON CRIB              30     310/ 16/ 19   N/A
BURNHAM HARBOR             30     310/ 10/ 16   N/A
CALUMET HARBOR             30     290/  9/ 14 1011.6R
BURNS HARBOR               30     320/ 16/ 19 1012.5R
MICHIGAN CITY              30     280/ 21/ 23   N/A
$$

ILZ025>027-034>036-040-047-049-050-058-095>099-232100-
WEST-CENTRAL ILLINOIS

CITY           SKY/WX    TMP DP  RH WIND       PRES   REMARKS
QUINCY         CLOUDY    32  26  78 NW17      30.07R WCI  21
GALESBURG*     CLOUDY    32  26  81 W20       30.02R WCI  20
MACOMB*        CLOUDY    32  26  79 NW18      30.06R WCI  20
JACKSONVILLE*  CLOUDY    32  27  81 NW17G25   30.04R WCI  21
PITTSFIELD*    CLOUDY    34  28  79 W15G21    30.08R WCI  24
$$

ILZ028>032-037-038-041>044-048-051>054-059>061-232100-
CENTRAL ILLINOIS

CITY           SKY/WX    TMP DP  RH WIND       PRES   REMARKS
PONTIAC        CLOUDY    32  29  88 W16G22    29.96R WCI  21
BLOOMINGTON    CLOUDY    31  26  82 NW14      29.96R WCI  21
DECATUR        CLOUDY    32  28  85 NW16G23   29.99R WCI  21
PEORIA         CLOUDY    33  26  75 NW10G21   29.99R WCI  25
LACON*         CLOUDY    31  27  82 NW15      29.97R WCI  21
LINCOLN*       CLOUDY    33  29  85 NW8G17    30.00R WCI  26
SPRINGFIELD    CLOUDY    33  28  81 NW18G26   30.02R WCI  22
TAYLORVILLE    CLOUDY    32  27  81 NW15G25   30.02R WCI  22
$$

ILZ033-039-045-046-055>057-062-063-232100-
EAST-CENTRAL ILLINOIS

CITY           SKY/WX    TMP DP  RH WIND       PRES   REMARKS
CHAMPAIGN      CLOUDY    32  29  88 W20       29.96R WCI  20
DANVILLE*      CLOUDY    32  31  96 W17G25    29.91R FOG     WCI  21
RANTOUL*       CLOUDY    34  30  87 NW18G25   29.94R WCI  23
MATTOON        CLOUDY    32  28  85 W21       29.98R WCI  20
PARIS*         CLOUDY    33  31  94 W20G25    29.97R WCI  21
$$

ILZ079-100>102-232100-
SOUTHWEST ILLINOIS

CITY           SKY/WX    TMP DP  RH WIND       PRES   REMARKS
ALTON          CLOUDY    34  30  86 NW16      30.06R WCI  23
CAHOKIA*       CLOUDY    37  26  64 W13       30.08R WCI  29
SPARTA*        CLOUDY    35  28  76 W10G20    30.09R WCI  27
$$

ILZ064>066-069>071-074>076-080>082-084>086-088>090-092>094-232100-
SOUTH-CENTRAL ILLINOIS

CITY           SKY/WX    TMP DP  RH WIND       PRES   REMARKS
CARBONDALE     CLOUDY    37  27  67 W14G23    30.08R WCI  28
CAIRO*         CLOUDY    39  31  73 W10       30.10R WCI  32
EFFINGHAM*     CLOUDY    33  30  88 W14G21    30.04R WCI  24
MARION         CLOUDY    36  27  69 NW14      30.09R WCI  27
MT. VERNON     CLOUDY    35  27  72 W10G17    30.06R WCI  27
CENTRALIA*     CLOUDY    35  29  76 W12G21    30.04S WCI  27
SALEM*         CLOUDY    35  28  74 W15G25    30.04S WCI  26
METROPOLIS*    CLOUDY    40  30  69 W7        30.08S
$$

ILZ067-068-072-073-078-083-087-091-232100-
SOUTHEAST ILLINOIS

CITY           SKY/WX    TMP DP  RH WIND       PRES   REMARKS
LAWRENCEVILLE  CLOUDY    36  32  85 W18G26    30.02R WCI  26
FLORA*         CLOUDY    35  30  83 W12G21    30.04R WCI  26
FAIRFIELD*     CLOUDY    34  31  88 W6        30.04R WCI  29
HARRISBURG*    CLOUDY    37  31  77 W17       30.07R WCI  27
ROBINSON*      CLOUDY    34  32  91 W17G24    30.01R WCI  24
CARMI*         CLOUDY    36  32  85 W18G24    30.05R WCI  26
$$

ABBREVIATIONS USED IN REMARKS
   TC - TEMPERATURE IN CELSIUS
  WCI - WIND CHILL INDEX
   HX - HEAT INDEX
  VSB - VISIBILITY
$$





USA.gov is the U.S. government's official web portal to all federal, state and local government web resources and services.